Location: Kirchberg
(47.4114°N, 9.0398°E)
Time: 01:21:47
(UTC+00:00)

Cosmos 2237 - Pass Details

Date: 03 March 2021
Orbit: 845 x 857 km, 70.9° (Epoch: 12 April)

Event Time Altitude Azimuth Distance (km) Brightness Sun altitude
Rises 18:06:36 0° 190° (S) 3,407 7.5 -10.0°
Reaches altitude 10° 18:09:05 10° 186° (S) 2,477 6.7 -10.4°
Maximum altitude 18:14:37 54° 111° (ESE) 1,030 4.3 -11.4°
Drops below altitude 10° 18:20:12 10° 35° (NE) 2,499 6.4 -12.3°
Sets 18:22:42 0° 31° (NNE) 3,440 7.1 -12.7°
